Weather History for Vitoria, Spain

Change the Weather History Date:

Monday, September 16, 2013

  Actual Average Record
Temperature  
Mean Temperature 56 °F -  
Max Temperature 71 °F 69 °F 89 °F (2003)
Min Temperature 41 °F 46 °F 37 °F (1996)
Degree Days  
Heating Degree Days 9    
Growing Degree Days 6 (Base 50)    
Moisture  
Dew Point 50 °F    
Average Humidity 85    
Maximum Humidity 100    
Minimum Humidity 46    
Precipitation  
Precipitation 0.00 in - - ()
Sea Level Pressure  
Sea Level Pressure 30.05 in    
Wind  
Wind Speed 3 mph ()    
Max Wind Speed 20 mph    
Max Gust Speed 29 mph    
Visibility 4.4 miles    
Events Fog    
Averages and records for this station are not official NWS values.
T = Trace of Precipitation, MM = Missing Value Source: Averaged Metar Reports

Daily Weather History Graph

Daily Weather History Graph

Search for Another Location

Airport:

Trip Planner

Search our weather history database for the weather conditions in past years. The results will help you decide how hot, cold, wet, or windy it might be!

Date:

Astronomy

Sep. 16, 2013 Rise Set
Actual Time 7:51 AM CEST 8:18 PM CEST
Civil Twilight 7:23 AM CEST 8:47 PM CEST
Nautical Twilight 6:49 AM CEST 9:20 PM CEST
Astronomical Twilight 6:15 AM CEST 9:55 PM CEST
Moon 6:21 PM CEST (9/16) 4:17 AM CEST (9/16)
Length of Visible Light 13h 24m
Length of Day
12h 27m
Waxing Gibbous, 88% of the Moon is Illuminated
Sep 16
Waxing Gibbous
Sep 19
Full
Sep 27
Last Quarter
Oct 5
New
Oct 12
First Quarter

Hourly Weather History & Observations

Time (CEST) Temp. Windchill Dew Point Humidity Pressure Visibility Wind Dir Wind Speed Gust Speed Precip Events Conditions
12:00 AM 48.2 °F - 46.4 °F 93% 30.12 in 6.2 mi Variable 1.2 mph - N/A   Partly Cloudy
12:30 AM 46.4 °F - 44.6 °F 93% 30.12 in 6.2 mi ENE 1.2 mph - N/A   Partly Cloudy
1:00 AM 46.4 °F - 44.6 °F 93% 30.09 in 6.2 mi Calm Calm - N/A   Partly Cloudy
1:30 AM 44.6 °F - 44.6 °F 100% 30.09 in 6.2 mi Calm Calm - N/A   Partly Cloudy
2:00 AM 44.6 °F - 44.6 °F 100% 30.09 in 6.2 mi Calm Calm - N/A   Partly Cloudy
2:30 AM 42.8 °F - 42.8 °F 100% 30.09 in 6.2 mi Variable 1.2 mph - N/A   Partly Cloudy
3:00 AM 44.6 °F 43.1 °F 42.8 °F 93% 30.09 in 6.2 mi ENE 3.5 mph - N/A   Partly Cloudy
3:30 AM 44.6 °F - 44.6 °F 100% 30.06 in 5.6 mi North 2.3 mph - N/A   Partly Cloudy
4:00 AM 42.8 °F - 42.8 °F 100% 30.06 in 5.0 mi WSW 1.2 mph - N/A   Partly Cloudy
4:30 AM 42.8 °F - 42.8 °F 100% 30.06 in 5.0 mi Calm Calm - N/A   Partly Cloudy
5:00 AM 41.0 °F - 41.0 °F 100% 30.06 in 2.8 mi Calm Calm - N/A Fog Fog
5:30 AM 41.0 °F - 41.0 °F 100% 30.06 in 1.9 mi Calm Calm - N/A Fog Fog
6:00 AM 42.8 °F - 42.8 °F 100% 30.04 in 0.6 mi Variable 1.2 mph - N/A Fog Scattered Clouds
6:30 AM 44.6 °F - 44.6 °F 100% 30.04 in 0.5 mi Variable 1.2 mph - N/A Fog Fog
6:43 AM 46.4 °F - 46.4 °F 100% 30.04 in 0.2 mi Variable 1.2 mph - N/A Fog Fog
7:00 AM 44.6 °F - 44.6 °F 100% 30.04 in 0.1 mi Calm Calm - N/A Fog Fog
7:30 AM 46.4 °F - 46.4 °F 100% 30.04 in 0.1 mi NNW 1.2 mph - N/A Fog Fog
8:00 AM 46.4 °F - 46.4 °F 100% 30.04 in 0.1 mi Calm Calm - N/A Fog Fog
8:30 AM 46.4 °F - 46.4 °F 100% 30.04 in 0.1 mi Calm Calm - N/A Fog Fog
9:00 AM 46.4 °F - 46.4 °F 100% 30.04 in 0.1 mi Calm Calm - N/A Fog Fog
9:30 AM 46.4 °F - 46.4 °F 100% 30.04 in 0.1 mi Calm Calm - N/A Fog Fog
10:00 AM 48.2 °F - 48.2 °F 100% 30.04 in 0.1 mi Calm Calm - N/A Fog Fog
10:30 AM 48.2 °F - 48.2 °F 100% 30.04 in 0.3 mi Calm Calm - N/A Fog Fog
11:00 AM 48.2 °F - 48.2 °F 100% 30.04 in 0.9 mi Calm Calm - N/A Fog Patches of Fog
11:30 AM 51.8 °F - 51.8 °F 100% 30.04 in 2.2 mi Calm Calm - N/A Fog Fog
12:00 PM 55.4 °F - 53.6 °F 94% 30.04 in 3.1 mi Variable 1.2 mph - N/A   Scattered Clouds
12:30 PM 60.8 °F - 53.6 °F 77% 30.04 in 5.6 mi Calm Calm - N/A   Partly Cloudy
1:00 PM 66.2 °F - 51.8 °F 60% 30.04 in 6.2 mi Variable 1.2 mph - N/A   Scattered Clouds
1:30 PM 71.6 °F - 50.0 °F 46% 30.04 in 6.2 mi North 6.9 mph - N/A   Scattered Clouds
2:00 PM 71.6 °F - 51.8 °F 50% 30.01 in 6.2 mi NW 12.7 mph - N/A   Scattered Clouds
2:30 PM 71.6 °F - 55.4 °F 57% 30.01 in 6.2 mi NNW 9.2 mph - N/A   Mostly Cloudy
3:00 PM 71.6 °F - 55.4 °F 57% 30.01 in 6.2 mi NW 12.7 mph - N/A   Mostly Cloudy
3:30 PM 71.6 °F - 55.4 °F 57% 30.01 in 6.2 mi North 16.1 mph 28.8 mph N/A   Scattered Clouds
4:00 PM 69.8 °F - 57.2 °F 64% 30.01 in 6.2 mi NNW 16.1 mph - N/A   Scattered Clouds
4:30 PM 69.8 °F - 57.2 °F 64% 29.98 in 6.2 mi NNW 19.6 mph - N/A   Scattered Clouds
5:00 PM 68.0 °F - 57.2 °F 68% 30.01 in 6.2 mi NW 16.1 mph 28.8 mph N/A   Scattered Clouds
5:30 PM 68.0 °F - 57.2 °F 68% 30.01 in 6.2 mi NNW 18.4 mph - N/A   Scattered Clouds
6:00 PM 66.2 °F - 57.2 °F 73% 30.01 in 6.2 mi NNW 9.2 mph 21.9 mph N/A   Scattered Clouds
6:30 PM 66.2 °F - 57.2 °F 73% 30.01 in 6.2 mi NNW 16.1 mph - N/A   Scattered Clouds
7:00 PM 64.4 °F - 57.2 °F 77% 30.01 in 6.2 mi NW 12.7 mph - N/A   Scattered Clouds
7:30 PM 64.4 °F - 57.2 °F 77% 30.01 in 6.2 mi North 8.1 mph - N/A   Scattered Clouds
8:00 PM 62.6 °F - 55.4 °F 77% 30.04 in 6.2 mi North 6.9 mph - N/A   Scattered Clouds
8:30 PM 60.8 °F - 55.4 °F 82% 30.04 in 6.2 mi North 4.6 mph - N/A   Scattered Clouds
9:00 PM 60.8 °F - 55.4 °F 82% 30.04 in 6.2 mi West 2.3 mph - N/A   Mostly Cloudy
9:30 PM 59.0 °F - 53.6 °F 82% 30.06 in 6.2 mi NE 9.2 mph - N/A   Mostly Cloudy
10:00 PM 59.0 °F - 51.8 °F 77% 30.06 in 6.2 mi North 6.9 mph 18.4 mph N/A   Mostly Cloudy
10:30 PM 59.0 °F - 51.8 °F 77% 30.09 in 6.2 mi Variable 2.3 mph - N/A   Mostly Cloudy
11:00 PM 57.2 °F - 51.8 °F 82% 30.09 in 6.2 mi Variable 2.3 mph - N/A   Mostly Cloudy
11:30 PM 57.2 °F - 51.8 °F 82% 30.09 in 6.2 mi NE 4.6 mph - N/A   Mostly Cloudy